Weather History for Montevideo, MN

Change the Weather History Date:

Thursday, May 23, 2013

  Actual Average Record
Temperature  
Mean Temperature 53 °F -  
Max Temperature 62 °F 74 °F 90 °F (1950)
Min Temperature 44 °F 50 °F 30 °F (1963)
Degree Days  
Heating Degree Days 12    
Growing Degree Days 3 (Base 50)    
Moisture  
Dew Point 41 °F    
Average Humidity 67    
Maximum Humidity 93    
Minimum Humidity 37    
Precipitation  
Precipitation 0.00 in - - ()
Sea Level Pressure  
Sea Level Pressure 30.25 in    
Wind  
Wind Speed 7 mph (East)    
Max Wind Speed 15 mph    
Max Gust Speed 18 mph    
Visibility 10 miles    
Events      
Averages and records for this station are not official NWS values.
T = Trace of Precipitation, MM = Missing Value Source: NWS Daily Summary

Daily Weather History Graph

Daily Weather History Graph

Search for Another Location

Airport:

Trip Planner

Search our weather history database for the weather conditions in past years. The results will help you decide how hot, cold, wet, or windy it might be!

Date:

Astronomy

May. 23, 2013 Rise Set
Actual Time 5:45 AM CDT 8:54 PM CDT
Civil Twilight 5:10 AM CDT 9:29 PM CDT
Nautical Twilight 4:24 AM CDT 10:15 PM CDT
Astronomical Twilight 3:29 AM CDT 11:10 PM CDT
Moon 7:24 PM CDT (5/23) 4:36 AM CDT (5/23)
Length of Visible Light 16h 19m
Length of Day
15h 08m
Waxing Gibbous, 97% of the Moon is Illuminated
May 23
Waxing Gibbous
May 24
Full
May 31
Last Quarter
Jun 8
New
Jun 16
First Quarter

Hourly Weather History & Observations

Time (CDT) Temp. Windchill Dew Point Humidity Pressure Visibility Wind Dir Wind Speed Gust Speed Precip Events Conditions
12:14 AM 46.4 °F 44.3 °F 44.6 °F 93% 30.06 in 10.0 mi North 4.6 mph - N/A   Clear
12:34 AM 46.4 °F 44.3 °F 44.6 °F 93% 30.07 in 10.0 mi North 4.6 mph - N/A   Clear
12:54 AM 46.4 °F 42.9 °F 44.6 °F 93% 30.08 in 10.0 mi North 6.9 mph - N/A   Clear
1:14 AM 46.4 °F 43.5 °F 44.6 °F 93% 30.09 in 10.0 mi North 5.8 mph - N/A   Clear
1:34 AM 46.4 °F 42.9 °F 44.6 °F 93% 30.10 in 10.0 mi NNE 6.9 mph - N/A   Clear
1:54 AM 44.6 °F 41.4 °F 42.8 °F 93% 30.11 in 10.0 mi NNE 5.8 mph - N/A   Clear
2:14 AM 46.4 °F 42.4 °F 44.6 °F 93% 30.11 in 10.0 mi NNE 8.1 mph - N/A   Clear
2:34 AM 46.4 °F 43.5 °F 42.8 °F 87% 30.12 in 10.0 mi NNE 5.8 mph - N/A   Clear
2:54 AM 44.6 °F 40.7 °F 42.8 °F 93% 30.13 in 10.0 mi NNE 6.9 mph - N/A   Clear
3:14 AM 46.4 °F 41.9 °F 42.8 °F 87% 30.14 in 10.0 mi NNE 9.2 mph - N/A   Clear
3:34 AM 46.4 °F 41.5 °F 42.8 °F 87% 30.15 in 10.0 mi NE 10.4 mph - N/A   Clear
3:54 AM 46.4 °F 42.9 °F 42.8 °F 87% 30.16 in 10.0 mi ENE 6.9 mph - N/A   Clear
4:14 AM 46.4 °F 43.5 °F 41.0 °F 81% 30.17 in 10.0 mi ENE 5.8 mph - N/A   Clear
4:34 AM 44.6 °F 42.2 °F 41.0 °F 87% 30.18 in 10.0 mi NNE 4.6 mph - N/A   Clear
4:54 AM 44.6 °F 41.4 °F 41.0 °F 87% 30.18 in 10.0 mi ENE 5.8 mph - N/A   Clear
5:14 AM 44.6 °F 42.2 °F 41.0 °F 87% 30.19 in 10.0 mi ENE 4.6 mph - N/A   Clear
5:34 AM 44.6 °F 40.7 °F 39.2 °F 81% 30.19 in 10.0 mi East 6.9 mph - N/A   Clear
5:54 AM 44.6 °F 39.7 °F 39.2 °F 81% 30.21 in 10.0 mi East 9.2 mph - N/A   Clear
6:14 AM 44.6 °F 42.2 °F 39.2 °F 81% 30.22 in 10.0 mi NE 4.6 mph - N/A   Clear
6:34 AM 44.6 °F 41.4 °F 41.0 °F 87% 30.23 in 10.0 mi ENE 5.8 mph - N/A   Clear
6:54 AM 44.6 °F - 41.0 °F 87% 30.23 in 10.0 mi Calm Calm - N/A   Clear
7:13 AM 46.4 °F 44.3 °F 42.8 °F 87% 30.24 in 10.0 mi North 4.6 mph - N/A   Clear
7:34 AM 46.4 °F 42.9 °F 42.8 °F 87% 30.25 in 10.0 mi NE 6.9 mph - N/A   Clear
7:54 AM 48.2 °F - 41.0 °F 76% 30.26 in 10.0 mi East 6.9 mph - N/A   Clear
8:13 AM 48.2 °F - 41.0 °F 76% 30.27 in 10.0 mi East 6.9 mph - N/A   Scattered Clouds
8:34 AM 50.0 °F - 42.8 °F 76% 30.27 in 10.0 mi ESE 9.2 mph - N/A   Scattered Clouds
8:54 AM 50.0 °F - 42.8 °F 76% 30.28 in 10.0 mi ESE 10.4 mph - N/A   Clear
9:13 AM 51.8 °F - 42.8 °F 71% 30.29 in 10.0 mi East 12.7 mph - N/A   Clear
9:34 AM 51.8 °F - 42.8 °F 71% 30.29 in 10.0 mi ESE 8.1 mph - N/A   Scattered Clouds
9:54 AM 51.8 °F - 42.8 °F 71% 30.29 in 10.0 mi ESE 15.0 mph - N/A   Mostly Cloudy
10:13 AM 53.6 °F - 42.8 °F 67% 30.30 in 10.0 mi East 10.4 mph - N/A   Scattered Clouds
10:34 AM 53.6 °F - 44.6 °F 72% 30.30 in 10.0 mi East 9.2 mph - N/A   Clear
10:54 AM 55.4 °F - 44.6 °F 67% 30.30 in 10.0 mi ESE 9.2 mph - N/A   Scattered Clouds
11:14 AM 53.6 °F - 44.6 °F 72% 30.30 in 10.0 mi East 6.9 mph - N/A   Overcast
11:34 AM 55.4 °F - 42.8 °F 63% 30.31 in 10.0 mi East 8.1 mph - N/A   Mostly Cloudy
11:54 AM 55.4 °F - 44.6 °F 67% 30.31 in 10.0 mi East 9.2 mph - N/A   Scattered Clouds
12:14 PM 55.4 °F - 44.6 °F 67% 30.31 in 10.0 mi ENE 8.1 mph - N/A   Clear
12:34 PM 57.2 °F - 44.6 °F 63% 30.31 in 10.0 mi East 10.4 mph 16.1 mph N/A   Clear
12:54 PM 57.2 °F - 44.6 °F 63% 30.30 in 10.0 mi ESE 6.9 mph - N/A   Clear
1:14 PM 57.2 °F - 44.6 °F 63% 30.30 in 10.0 mi NE 12.7 mph - N/A   Clear
1:34 PM 59.0 °F - 44.6 °F 59% 30.30 in 10.0 mi East 8.1 mph 11.5 mph N/A   Clear
1:54 PM 59.0 °F - 42.8 °F 55% 30.30 in 10.0 mi East 10.4 mph - N/A   Clear
2:14 PM 60.8 °F - 42.8 °F 52% 30.30 in 10.0 mi ENE 8.1 mph - N/A   Clear
2:34 PM 60.8 °F - 39.2 °F 45% 30.30 in 10.0 mi East 10.4 mph - N/A   Clear
2:54 PM 60.8 °F - 41.0 °F 48% 30.30 in 10.0 mi ESE 9.2 mph 16.1 mph N/A   Clear
3:14 PM 60.8 °F - 39.2 °F 45% 30.30 in 10.0 mi ESE 11.5 mph 17.3 mph N/A   Clear
3:34 PM 60.8 °F - 41.0 °F 48% 30.29 in 10.0 mi ESE 9.2 mph 17.3 mph N/A   Clear
3:54 PM 60.8 °F - 41.0 °F 48% 30.28 in 10.0 mi SE 9.2 mph 17.3 mph N/A   Clear
4:14 PM 62.6 °F - 39.2 °F 42% 30.29 in 10.0 mi ESE 11.5 mph 16.1 mph N/A   Clear
4:33 PM 62.6 °F - 41.0 °F 45% 30.28 in 10.0 mi East 12.7 mph 18.4 mph N/A   Clear
4:54 PM 62.6 °F - 42.8 °F 48% 30.28 in 10.0 mi ESE 12.7 mph 18.4 mph N/A   Clear
5:14 PM 62.6 °F - 37.4 °F 39% 30.27 in 10.0 mi SSE 11.5 mph 16.1 mph N/A   Clear
5:34 PM 62.6 °F - 37.4 °F 39% 30.28 in 10.0 mi ESE 5.8 mph - N/A   Clear
5:54 PM 62.6 °F - 37.4 °F 39% 30.28 in 10.0 mi East 12.7 mph - N/A   Clear
6:14 PM 62.6 °F - 37.4 °F 39% 30.28 in 10.0 mi ESE 9.2 mph - N/A   Clear
6:34 PM 62.6 °F - 35.6 °F 37% 30.28 in 10.0 mi ESE 8.1 mph - N/A   Clear
6:54 PM 62.6 °F - 37.4 °F 39% 30.27 in 10.0 mi ESE 8.1 mph 16.1 mph N/A   Clear
7:14 PM 62.6 °F - 35.6 °F 37% 30.27 in 10.0 mi SE 9.2 mph - N/A   Clear
7:34 PM 62.6 °F - 37.4 °F 39% 30.27 in 10.0 mi SE 8.1 mph - N/A   Clear
7:54 PM 60.8 °F - 37.4 °F 42% 30.27 in 10.0 mi SE 6.9 mph - N/A   Clear
8:14 PM 60.8 °F - 39.2 °F 45% 30.27 in 10.0 mi SE 5.8 mph - N/A   Clear
8:34 PM 57.2 °F - 41.0 °F 55% 30.28 in 10.0 mi SE 5.8 mph - N/A   Clear
8:54 PM 57.2 °F - 41.0 °F 55% 30.28 in 10.0 mi SE 6.9 mph - N/A   Clear
9:14 PM 55.4 °F - 42.8 °F 63% 30.28 in 10.0 mi SE 5.8 mph - N/A   Clear
9:34 PM 53.6 °F - 42.8 °F 67% 30.29 in 10.0 mi SSE 6.9 mph - N/A   Clear
9:54 PM 51.8 °F - 41.0 °F 67% 30.29 in 10.0 mi SSE 6.9 mph - N/A   Clear
10:14 PM 50.0 °F - 39.2 °F 66% 30.30 in 10.0 mi South 5.8 mph - N/A   Clear
10:34 PM 50.0 °F - 39.2 °F 66% 30.31 in 10.0 mi South 5.8 mph - N/A   Clear
10:54 PM 51.8 °F - 39.2 °F 62% 30.32 in 10.0 mi South 5.8 mph - N/A   Clear
11:14 PM 51.8 °F - 39.2 °F 62% 30.32 in 10.0 mi South 4.6 mph - N/A   Clear
11:34 PM 51.8 °F - 39.2 °F 62% 30.32 in 10.0 mi South 4.6 mph - N/A   Clear
11:54 PM 50.0 °F - 39.2 °F 66% 30.32 in 10.0 mi South 4.6 mph - N/A   Clear